When you browse on this site, cookies collect data to enhance your experience and personalize the content and advertising you see.
Visit our Privacy Policy to learn more. By continuing to use the site, you agree to this use of cookies and data.
  • In Portugal
  • List of Countries
  • For 7 days
  • Water Temperature
  • Satellite Maps
  • Weather Map
  • Weather Widgets
  • user-avatar
    Login

    Hourly Weather Kalat

    Today, 16 July, Tuesday

    Time Temperature Precipitation Wind Pressure Humidity
    00:00 +8°C° 0 mm 2 mps 476 mmHg 61%
    01:00 +8°C° 0 mm 2 mps 476 mmHg 63%
    02:00 +7°C° 0 mm 2 mps 475 mmHg 66%
    03:00 +7°C° 0 mm 2 mps 475 mmHg 68%
    04:00 +6°C° 0 mm 2 mps 475 mmHg 70%
    05:00 +5°C° 0 mm 3 mps 475 mmHg 70%
    06:00 +7°C° 0 mm 3 mps 475 mmHg 66%
    07:00 +8°C° 0 mm 3 mps 476 mmHg 62%
    08:00 +8°C° 0 mm 3 mps 477 mmHg 59%
    09:00 +10°C° 0 mm 3 mps 478 mmHg 54%
    10:00 +11°C° 0 mm 3 mps 478 mmHg 49%
    11:00 +12°C° 0 mm 3 mps 479 mmHg 46%
    12:00 +12°C° 0 mm 3 mps 479 mmHg 45%
    13:00 +13°C° 0 mm 3 mps 479 mmHg 44%
    14:00 +14°C° 0 mm 3 mps 480 mmHg 42%
    15:00 +14°C° 0.1 mm 3 mps 480 mmHg 43%
    16:00 +14°C° 0.1 mm 4 mps 480 mmHg 44%
    17:00 +14°C° 0.1 mm 4 mps 480 mmHg 45%
    18:00 +13°C° 0.1 mm 4 mps 480 mmHg 48%
    19:00 +12°C° 0.1 mm 4 mps 480 mmHg 50%
    20:00 +12°C° 0.1 mm 3 mps 479 mmHg 52%
    21:00 +11°C° 0 mm 3 mps 479 mmHg 55%
    22:00 +10°C° 0 mm 3 mps 479 mmHg 58%
    23:00 +10°C° 0 mm 2 mps 479 mmHg 61%

    Tomorrow, 17 July, Wednesday

    Time Temperature Precipitation Wind Pressure Humidity
    00:00 +9°C° 0 mm 2 mps 478 mmHg 63%
    01:00 +8°C° 0 mm 2 mps 478 mmHg 65%
    02:00 +8°C° 0 mm 2 mps 477 mmHg 67%
    03:00 +7°C° 0 mm 2 mps 477 mmHg 68%
    04:00 +7°C° 0 mm 2 mps 476 mmHg 70%
    05:00 +8°C° 0 mm 1 mps 476 mmHg 71%
    06:00 +7°C° 0 mm 2 mps 477 mmHg 66%
    07:00 +8°C° 0 mm 2 mps 478 mmHg 61%
    08:00 +9°C° 0 mm 2 mps 478 mmHg 56%
    09:00 +12°C° 0 mm 2 mps 479 mmHg 50%
    10:00 +13°C° 0 mm 2 mps 480 mmHg 45%
    11:00 +14°C° 0 mm 2 mps 480 mmHg 39%
    12:00 +15°C° 0 mm 2 mps 481 mmHg 36%
    13:00 +16°C° 0 mm 3 mps 481 mmHg 32%
    14:00 +17°C° 0 mm 3 mps 482 mmHg 29%
    15:00 +17°C° 0 mm 3 mps 482 mmHg 31%
    16:00 +17°C° 0 mm 4 mps 482 mmHg 32%
    17:00 +17°C° 0 mm 4 mps 481 mmHg 34%
    18:00 +15°C° 0 mm 4 mps 481 mmHg 37%
    19:00 +14°C° 0 mm 4 mps 481 mmHg 39%
    20:00 +13°C° 0 mm 3 mps 480 mmHg 42%
    21:00 +12°C° 0 mm 3 mps 480 mmHg 44%
    22:00 +12°C° 0 mm 3 mps 480 mmHg 46%
    23:00 +11°C° 0 mm 3 mps 479 mmHg 48%

    Day after tomorrow, 18 July, Thursday

    Time Temperature Precipitation Wind Pressure Humidity
    00:00 +10°C° 0 mm 2 mps 479 mmHg 50%
    01:00 +9°C° 0 mm 2 mps 478 mmHg 51%
    02:00 +9°C° 0 mm 2 mps 478 mmHg 53%
    03:00 +8°C° 0 mm 2 mps 477 mmHg 54%
    04:00 +8°C° 0 mm 2 mps 477 mmHg 56%
    05:00 +7°C° 0 mm 2 mps 476 mmHg 57%
    06:00 +8°C° 0 mm 2 mps 477 mmHg 52%
    07:00 +9°C° 0 mm 2 mps 478 mmHg 47%
    08:00 +10°C° 0 mm 2 mps 478 mmHg 42%
    09:00 +11°C° 0 mm 3 mps 479 mmHg 37%
    10:00 +13°C° 0 mm 3 mps 480 mmHg 32%
    11:00 +14°C° 0 mm 3 mps 481 mmHg 28%
    12:00 +16°C° 0 mm 3 mps 481 mmHg 26%
    13:00 +17°C° 0 mm 3 mps 482 mmHg 24%
    14:00 +18°C° 0 mm 3 mps 482 mmHg 22%
    15:00 +18°C° 0 mm 4 mps 482 mmHg 22%
    16:00 +18°C° 0 mm 4 mps 482 mmHg 23%
    17:00 +18°C° 0 mm 4 mps 482 mmHg 24%
    18:00 +17°C° 0 mm 4 mps 482 mmHg 26%
    19:00 +15°C° 0 mm 4 mps 481 mmHg 29%
    20:00 +14°C° 0 mm 4 mps 481 mmHg 32%
    21:00 +13°C° 0 mm 3 mps 480 mmHg 35%
    22:00 +12°C° 0 mm 3 mps 480 mmHg 37%
    23:00 +12°C° 0 mm 2 mps 480 mmHg 40%

    19 July, Friday

    Time Temperature Precipitation Wind Pressure Humidity
    00:00 +12°C° 0 mm 2 mps 479 mmHg 42%
    01:00 +10°C° 0 mm 2 mps 478 mmHg 44%
    02:00 +9°C° 0 mm 2 mps 478 mmHg 46%
    03:00 +9°C° 0 mm 2 mps 477 mmHg 47%
    04:00 +8°C° 0 mm 2 mps 477 mmHg 48%
    05:00 +8°C° 0 mm 2 mps 477 mmHg 49%
    06:00 +9°C° 0 mm 2 mps 478 mmHg 45%
    07:00 +10°C° 0 mm 2 mps 479 mmHg 41%
    08:00 +12°C° 0 mm 2 mps 479 mmHg 36%
    09:00 +13°C° 0 mm 2 mps 480 mmHg 34%
    10:00 +15°C° 0 mm 2 mps 481 mmHg 31%
    11:00 +16°C° 0 mm 2 mps 482 mmHg 29%
    12:00 +17°C° 0 mm 3 mps 482 mmHg 27%
    13:00 +18°C° 0 mm 3 mps 483 mmHg 25%
    14:00 +19°C° 0 mm 3 mps 483 mmHg 23%
    15:00 +19°C° 0 mm 3 mps 483 mmHg 23%
    16:00 +19°C° 0 mm 4 mps 483 mmHg 24%
    17:00 +19°C° 0 mm 4 mps 483 mmHg 24%
    18:00 +18°C° 0 mm 4 mps 483 mmHg 27%
    19:00 +17°C° 0 mm 4 mps 482 mmHg 30%
    20:00 +16°C° 0 mm 3 mps 482 mmHg 32%
    21:00 +14°C° 0 mm 3 mps 481 mmHg 35%
    22:00 +14°C° 0 mm 2 mps 481 mmHg 38%
    23:00 +13°C° 0 mm 2 mps 480 mmHg 41%

    20 July, Saturday

    Time Temperature Precipitation Wind Pressure Humidity
    00:00 +12°C° 0 mm 2 mps 480 mmHg 43%
    01:00 +12°C° 0 mm 2 mps 479 mmHg 45%
    02:00 +10°C° 0 mm 2 mps 479 mmHg 47%
    03:00 +9°C° 0 mm 2 mps 478 mmHg 48%
    04:00 +10°C° 0 mm 1 mps 478 mmHg 49%
    05:00 +9°C° 0 mm 1 mps 478 mmHg 50%
    06:00 +9°C° 0 mm 2 mps 479 mmHg 45%
    07:00 +10°C° 0 mm 2 mps 479 mmHg 40%
    08:00 +12°C° 0 mm 2 mps 480 mmHg 36%
    09:00 +14°C° 0 mm 2 mps 481 mmHg 33%
    10:00 +14°C° 0 mm 3 mps 482 mmHg 30%
    11:00 +16°C° 0 mm 3 mps 483 mmHg 27%
    12:00 +17°C° 0 mm 3 mps 483 mmHg 25%
    13:00 +18°C° 0 mm 3 mps 483 mmHg 23%
    14:00 +19°C° 0 mm 3 mps 484 mmHg 22%
    15:00 +19°C° 0 mm 4 mps 484 mmHg 22%
    16:00 +19°C° 0 mm 4 mps 484 mmHg 23%
    17:00 +19°C° 0 mm 4 mps 483 mmHg 24%
    18:00 +18°C° 0 mm 4 mps 483 mmHg 26%
    19:00 +17°C° 0 mm 4 mps 482 mmHg 29%
    20:00 +15°C° 0 mm 4 mps 482 mmHg 32%
    21:00 +14°C° 0 mm 3 mps 482 mmHg 34%
    22:00 +13°C° 0 mm 3 mps 481 mmHg 37%
    23:00 +12°C° 0 mm 3 mps 481 mmHg 39%

    21 July, Sunday

    Time Temperature Precipitation Wind Pressure Humidity
    00:00 +12°C° 0 mm 2 mps 480 mmHg 41%
    01:00 +12°C° 0 mm 2 mps 479 mmHg 43%
    02:00 +10°C° 0 mm 2 mps 479 mmHg 45%
    03:00 +10°C° 0 mm 2 mps 478 mmHg 47%
    04:00 +9°C° 0 mm 2 mps 478 mmHg 48%
    05:00 +9°C° 0 mm 2 mps 478 mmHg 49%
    06:00 +10°C° 0 mm 2 mps 478 mmHg 45%
    07:00 +11°C° 0 mm 3 mps 479 mmHg 41%
    08:00 +12°C° 0 mm 3 mps 480 mmHg 37%
    09:00 +13°C° 0 mm 3 mps 481 mmHg 34%
    10:00 +14°C° 0 mm 3 mps 481 mmHg 31%
    11:00 +16°C° 0 mm 3 mps 482 mmHg 28%
    12:00 +17°C° 0 mm 3 mps 482 mmHg 26%
    13:00 +18°C° 0 mm 4 mps 483 mmHg 24%
    14:00 +19°C° 0 mm 4 mps 483 mmHg 22%
    15:00 +19°C° 0 mm 4 mps 483 mmHg 22%
    16:00 +19°C° 0 mm 4 mps 483 mmHg 22%
    17:00 +19°C° 0 mm 5 mps 483 mmHg 23%
    18:00 +18°C° 0 mm 4 mps 482 mmHg 26%
    19:00 +15°C° 0 mm 4 mps 481 mmHg 28%
    20:00 +14°C° 0 mm 4 mps 481 mmHg 31%
    21:00 +13°C° 0 mm 3 mps 480 mmHg 33%
    22:00 +13°C° 0 mm 3 mps 480 mmHg 36%
    23:00 +12°C° 0 mm 3 mps 480 mmHg 38%
    Show more